#timestamp,LO_Frequency,Hit 
1501315215.7,286047015.9,N
1501315235.5,286047020.4,N
1501315255.3,286047017.5,N
1501315275.1,286047019.8,N
1501315295.9,286047017.4,N
1501315315.7,286047017.6,N
1501315335.5,286047016.0,N
1501315355.4,286047014.6,N
1501315375.2,286047012.5,N
1501315395.0,286047014.9,N
1501315395.9,286047014.9,N
1501315415.8,286047012.6,N
1501315435.6,286047015.2,N
1501315455.4,286047013.9,N
1501315475.3,286047011.4,N
1501315495.1,286047011.7,N
1501315496.0,286047011.7,N
1501315515.8,286047009.4,N
1501315535.7,286047010.9,N
1501315555.5,286047011.9,N
1501315575.3,286047011.4,N
1501315595.1,286047012.0,N
1501315615.9,286047013.9,N
1501315635.7,286047013.6,N
1501315655.5,286047011.9,N
1501315675.4,286047013.7,N
1501315695.2,286047011.8,N
1501315715.0,286047013.9,N
1501315715.9,286047013.9,N
1501315735.8,286047012.9,N
1501315755.6,286047010.9,N
1501315775.4,286047015.2,N
1501315795.3,286047011.2,N
1501315815.1,286047014.0,N
1501315816.0,286047014.0,N
1501315835.8,286047012.2,N
1501315855.7,286047011.1,N
1501315875.5,286047010.9,N
1501315895.3,286047014.0,N
1501315915.1,286047013.3,N
1501315935.9,286047010.9,N
1501315955.7,286047013.7,N
1501315975.5,286047011.5,N
1501315995.4,286047009.3,N
1501316015.2,286047012.0,N
1501316035.0,286047009.6,N
1501316035.9,286047009.6,N
1501316055.8,286047009.3,N
1501316075.6,286047010.7,N
1501316095.4,286047011.7,N
1501316115.3,286047010.0,N
1501316135.1,286047011.6,N
1501316136.0,286047011.6,N
1501316155.8,286047010.5,N
1501316175.6,286047010.6,N
1501316195.5,286047010.2,N
1501316215.3,286047007.7,N
1501316235.1,286047008.3,N
1501316255.9,286047007.7,N
1501316275.7,286047008.9,N
1501316295.5,286047009.2,N
1501316315.4,286047007.1,N
1501316335.2,286047004.7,N
1501316355.0,286047008.3,N
1501316355.9,286047008.3,N
1501316375.8,286047009.0,N
1501316395.6,286047010.7,N
1501316415.4,286047010.1,N
1501316435.2,286047008.8,N
1501316455.1,286047006.7,N
1501316456.0,286047006.7,N
1501316475.8,286047009.0,N
1501316495.6,286047008.3,N
1501316515.5,286047008.3,N
1501316535.3,286047004.9,N
1501316555.1,286047004.6,N
1501316575.9,286047007.5,N
1501316595.7,286047007.3,N
1501316615.5,286047007.2,N
1501316635.4,286047006.9,N
1501316655.2,286047006.9,N
1501316675.0,286047006.6,N
1501316675.9,286047006.6,N
1501316695.7,286047006.7,N
1501316715.6,286047004.7,N
1501316735.4,286047006.3,N
1501316755.2,286047007.2,N
1501316775.1,286047007.3,N
1501316776.0,286047007.3,N
1501316795.8,286047004.7,N
1501316815.6,286047006.9,N
1501316835.5,286047007.9,N
1501316855.3,286047009.2,N
1501316875.1,286047010.3,N
1501316895.9,286047009.0,N
1501316915.7,286047006.3,N
1501316935.5,286047007.0,N
1501316955.3,286047006.9,N
1501316975.2,286047009.0,N
1501316995.0,286047010.6,N
1501316995.9,286047010.6,N
1501317015.7,286047008.7,N
1501317035.6,286047010.7,N
1501317055.4,286047009.6,N
1501317075.2,286047008.0,N
1501317095.1,286047006.1,N
1501317096.0,286047006.1,N
1501317115.8,286047006.5,N
1501317135.6,286047007.7,N
1501317155.5,286047009.7,N
1501317175.3,286047009.9,N
1501317195.1,286047010.6,N
1501317215.8,286047008.7,N
1501317235.7,286047004.5,N
1501317255.5,286047004.9,N
1501317275.3,286047004.9,N
1501317295.2,286047006.4,N
1501317315.9,286047006.3,N
1501317335.7,286047007.4,N
1501317355.6,286047008.9,N
1501317375.4,286047006.9,N
1501317395.2,286047006.8,N
1501317415.1,286047004.8,N
1501317416.0,286047004.8,N
1501317435.8,286047006.0,N
1501317455.6,286047005.1,N
1501317475.4,286047005.4,N
1501317495.3,286047003.1,N
1501317515.1,286047005.2,N
1501317535.8,286047005.6,N
1501317555.7,286047005.7,N
1501317575.5,286047005.1,N
1501317595.3,286047009.0,N
1501317615.2,286047007.0,N
1501317635.9,286047007.4,N
1501317655.7,286047006.6,N
1501317675.6,286047005.4,N
1501317695.4,286047007.5,N
1501317715.2,286047006.9,N
1501317735.0,286047007.2,N
1501317736.0,286047007.2,N
1501317755.8,286047005.9,N
1501317775.6,286047005.3,N
1501317795.4,286047005.2,N
1501317815.3,286047006.0,N
1501317835.1,286047003.2,N
1501317855.8,286047005.6,N
1501317875.7,286047003.5,N
1501317895.5,286047005.2,N
1501317915.3,286047005.9,N
1501317935.2,286047005.9,N
1501317955.9,286047003.4,N
1501317975.7,286047006.0,N
1501317995.6,286047005.6,N
1501318015.4,286047004.7,N
1501318035.2,286047003.5,N
1501318055.0,286047003.4,N
1501318055.9,286047003.4,N
1501318075.8,286047003.8,N
1501318095.6,286047004.3,N
1501318115.4,286047003.3,N
1501318135.3,286047003.1,N
1501318155.1,286047003.9,N
1501318175.8,286047003.0,N
1501318195.7,286047003.1,N
1501318215.5,286047002.1,N
1501318235.3,286047001.9,N
1501318255.2,286047000.0,N
1501318275.9,286047002.4,N
1501318295.7,286047002.6,N
1501318315.5,286047003.1,N
1501318335.4,286047003.6,N
1501318355.2,286047004.0,N
1501318375.0,286047003.9,N
1501318375.9,286047003.9,N
1501318395.8,286047004.4,N
1501318415.6,286047006.0,N
1501318435.4,286047005.4,N
1501318455.3,286047005.8,N
1501318475.1,286047003.0,N
1501318476.0,286047003.0,N
1501318495.8,286047007.2,N
1501318515.7,286047004.8,N
1501318535.5,286047004.8,N
1501318555.3,286047004.7,N
1501318575.1,286047007.6,N
1501318595.9,286047007.1,N
1501318615.7,286047002.9,N
1501318635.5,286047006.0,N
1501318655.4,286047001.3,N
1501318675.2,286047004.1,N
1501318695.0,286047005.3,N
1501318695.9,286047005.3,N
1501318715.8,286047003.8,N
1501318735.6,286047003.1,N
1501318755.4,286047003.6,N
1501318775.3,286047001.6,N
1501318795.1,286047001.7,N
1501318796.0,286047001.7,N
